Wind_Speed
10 10 9 9 10 10 10 10 10 10 11 11 11 12 13 13 13 13 14 14 14 15 16 16 16 16 17 17 18 17 18 18 17 16 17 16 16 16 16 16 16 17 17
12 11 11 11 10 11 11 11 12 11 12 13 13 14 14 15 15 15 15 15 15 16 16 17 17 17 18 18 18 18 18 19 18 18 18 18 18 18 18 18 17 17 17
13 13 12 12 13 13 13 13 14 13 13 14 14 15 16 16 16 16 16 17 17 17 17 18 18 19 19 18 18 19 19 20 20 19 20 20 19 19 19 19 19 18 18
15 14 14 14 15 15 16 16 16 16 16 16 16 17 17 17 17 17 18 18 19 19 19 19 19 20 19 19 19 20 21 21 21 20 21 20 20 20 20 20 20 20 20
16 16 16 16 17 17 17 17 18 17 18 18 18 18 18 18 18 19 20 20 21 21 20 20 20 20 21 21 21 21 21 22 22 22 22 21 21 21 22 22 22 21 21
18 18 19 19 19 19 19 19 20 19 19 20 19 19 19 20 20 21 21 21 22 21 21 21 21 22 22 22 22 22 22 23 23 23 23 23 23 23 24 23 23 23 22
19 20 22 22 21 21 22 22 22 21 21 21 21 21 21 21 22 23 23 23 24 23 23 23 24 23 23 23 24 24 24 24 25 25 25 25 25 24 25 24 24 24 23
21 22 23 23 23 24 24 24 23 22 23 23 23 24 24 24 25 25 25 25 25 26 25 25 25 26 26 26 26 26 26 26 26 26 27 27 27 26 26 26 26 25 24
23 24 25 26 26 27 27 24 23 23 24 24 24 25 25 25 26 26 27 27 27 27 28 28 28 28 28 28 28 28 27 28 28 28 28 28 29 28 28 28 27 27 26
24 25 25 26 26 26 26 24 24 25 26 26 26 27 27 27 27 28 29 29 30 30 29 29 30 30 30 30 31 30 29 29 29 29 30 30 30 30 29 29 28 28 27
25 26 26 27 26 26 27 27 27 27 27 27 27 28 28 29 29 30 30 31 31 31 31 31 30 30 31 32 32 32 31 31 31 30 30 30 30 30 30 30 30 29 28
27 27 27 28 28 28 29 28 28 28 29 29 29 29 30 30 30 31 32 33 33 33 32 32 31 32 32 33 33 33 32 32 32 31 30 30 30 30 30 30 29 29 29
29 29 29 30 30 29 29 29 29 30 30 30 30 31 31 31 31 31 32 33 33 33 33 33 33 33 34 34 33 33 33 32 32 31 31 31 31 30 30 30 30 31 31
32 31 32 32 32 31 32 31 30 31 31 31 31 31 32 32 33 33 33 34 34 34 34 35 35 35 35 34 34 34 33 33 32 32 32 32 32 31 30 30 30 31 31
31 31 32 33 33 32 32 32 32 32 32 32 32 31 32 33 33 34 35 35 35 36 36 36 36 36 36 35 34 34 34 33 34 34 34 34 33 31 31 30 31 31 31
32 32 32 32 32 32 32 32 32 33 32 32 33 33 33 33 33 35 35 36 36 37 37 37 36 36 36 35 35 34 34 34 35 35 34 34 33 32 32 31 32 32 32
34 33 34 34 33 34 34 33 33 33 33 33 34 34 34 34 35 35 35 36 36 37 37 37 36 36 36 35 35 35 35 35 35 36 35 35 35 34 33 33 33 33 33
34 35 35 35 33 33 33 33 34 34 34 34 34 36 36 34 34 35 36 36 36 37 37 36 35 35 35 35 35 35 36 36 36 35 34 34 34 34 33 33 32 32 32
35 34 35 35 34 34 34 34 35 35 34 34 33 34 34 33 34 34 35 36 37 37 36 35 34 34 34 34 35 36 35 35 35 34 34 34 33 34 34 34 33 33 33
33 34 34 35 35 35 35 35 35 34 34 34 34 34 33 34 34 35 36 36 36 36 36 35 34 34 34 34 34 35 34 34 33 33 33 33 33 34 34 34 34 33 33
33 33 34 34 33 34 34 34 34 33 33 34 34 33 34 35 36 36 35 35 36 36 35 34 34 34 33 33 34 34 34 33 33 33 33 32 33 33 33 34 33 32 32
31 31 32 31 31 32 32 33 34 34 34 35 35 35 34 35 36 35 35 35 35 35 34 34 34 33 33 33 34 34 34 33 33 33 33 34 34 34 34 34 33 33 32
31 31 32 31 30 30 31 32 33 33 34 34 34 34 34 34 35 35 35 35 34 33 33 33 34 33 33 33 33 34 33 33 33 33 34 33 33 33 32 32 32 32 31
31 31 31 31 31 31 32 32 33 34 35 35 34 34 33 34 34 35 36 35 34 33 33 33 34 33 33 32 33 33 33 33 34 34 34 33 32 32 31 31 30 30 31
31 31 32 32 32 32 32 32 33 34 35 35 34 34 34 34 34 35 35 35 35 34 34 33 33 32 32 32 32 32 32 32 32 32 32 32 31 31 30 30 30 30 31
30 30 31 31 30 30 31 32 33 33 34 33 34 34 34 34 34 35 35 35 35 34 33 33 32 32 33 33 32 32 32 32 31 31 31 30 30 30 30 30 30 30 29
Wind_Direction
293 291 291 295 298 298 300 301 305 308 307 307 304 306 307 306 307 307 308 309 309 310 311 313 314 313 311 312 315 318 318 319 319 320 319 318 315 314 315 317 316 315 313
291 288 285 288 292 293 295 295 299 304 304 303 303 302 302 300 301 303 305 307 308 309 309 309 311 311 309 310 313 314 314 315 315 316 316 314 312 310 309 310 310 311 311
286 285 286 287 288 292 294 293 296 298 300 301 301 300 299 297 299 301 303 306 308 308 308 308 308 308 308 309 310 310 311 312 313 312 313 311 309 307 307 306 305 306 306
283 282 282 285 285 287 290 291 294 295 294 295 296 295 296 295 296 300 302 303 305 306 306 306 306 305 306 307 306 306 307 308 309 309 308 307 307 305 304 305 303 303 303
281 281 282 284 285 284 287 290 292 293 293 293 293 293 294 294 295 298 300 301 300 301 302 303 303 302 303 304 304 306 308 308 308 307 306 305 305 304 303 303 301 300 301
281 281 281 283 282 282 285 287 288 289 291 291 291 292 293 295 296 297 299 299 299 299 299 298 298 300 302 302 303 305 307 307 307 306 307 307 304 303 302 301 300 298 299
280 281 281 280 279 279 281 282 283 284 285 287 290 291 292 294 294 295 297 298 298 299 299 297 296 297 298 299 299 302 303 303 303 304 304 305 304 302 301 299 298 298 298
279 282 279 278 277 277 278 280 281 284 286 285 287 290 292 292 294 294 295 296 298 299 297 297 295 295 296 297 297 298 299 300 302 303 302 303 302 301 300 298 297 297 296
279 281 281 280 277 278 279 279 281 283 283 286 288 291 292 292 294 294 294 296 297 298 298 296 295 294 295 296 297 297 297 298 299 301 301 301 300 299 298 298 296 295 295
281 282 282 281 280 279 281 283 286 286 285 286 288 289 289 290 291 292 294 295 296 295 295 295 295 293 293 294 295 295 295 295 296 298 299 299 299 299 299 298 297 295 293
283 285 285 283 281 280 282 284 286 286 285 286 286 287 288 290 291 292 293 293 293 292 292 293 292 292 292 292 292 293 293 294 294 295 296 297 297 297 297 296 296 295 293
284 285 285 284 284 283 284 284 285 285 284 285 285 286 288 289 290 291 292 293 292 292 292 292 292 291 291 292 292 292 293 293 294 294 295 295 295 295 295 294 293 293 292
281 283 283 283 284 283 283 283 284 285 286 286 286 286 287 287 289 290 291 293 294 293 292 292 291 291 291 291 291 291 292 292 292 293 294 295 295 294 293 292 291 291 292
280 280 283 283 282 282 283 284 284 285 288 287 288 287 287 288 289 290 291 292 293 293 292 291 290 291 291 291 291 290 290 292 292 292 292 293 294 294 294 292 291 290 290
280 280 282 283 281 281 283 285 286 287 289 290 288 287 288 289 290 290 290 291 291 292 291 291 291 290 290 289 289 290 291 292 292 292 292 292 292 292 292 292 291 290 289
281 280 281 283 281 281 282 284 285 286 287 288 289 289 288 290 290 290 291 291 291 291 291 291 291 291 291 292 291 291 291 292 292 292 291 291 291 291 290 289 290 289 288
280 279 280 282 281 281 282 285 286 287 288 289 289 289 288 288 290 291 292 292 290 290 291 292 292 292 292 292 291 292 291 290 291 291 290 290 290 290 289 288 287 288 288
279 279 279 281 282 283 284 285 286 287 288 290 291 290 291 291 292 292 292 292 292 292 292 292 292 292 292 291 290 290 291 291 291 291 291 291 291 289 288 288 287 288 288
278 278 278 280 280 282 284 285 286 288 290 291 291 292 293 294 293 293 293 293 293 292 293 293 294 293 292 291 289 289 290 291 291 290 290 290 289 288 287 287 286 286 287
276 277 278 280 281 282 283 284 285 287 289 291 292 292 294 296 297 296 296 295 294 294 293 293 293 292 291 291 290 290 290 291 291 290 289 289 288 288 288 287 286 286 287
276 278 280 280 281 281 282 284 286 288 289 291 292 293 294 295 296 298 297 297 295 294 293 293 292 292 291 291 291 291 291 290 290 289 289 289 289 288 288 287 285 284 285
276 278 281 282 283 283 284 285 287 288 290 291 292 292 293 294 295 296 297 298 298 296 295 295 294 292 291 291 291 290 290 290 289 289 288 289 289 288 288 288 286 284 284
276 278 279 281 283 284 284 285 288 290 291 292 293 293 294 295 296 297 297 298 299 299 298 294 294 293 291 291 291 291 290 289 289 290 290 289 289 289 289 288 287 285 283
276 278 280 281 282 283 284 286 288 290 291 292 293 294 294 294 295 296 297 298 299 300 299 297 294 292 292 291 292 292 291 290 290 290 290 290 289 289 288 288 287 285 284
275 276 278 281 282 282 284 286 288 289 291 292 293 293 294 294 294 296 296 297 298 299 298 297 294 293 293 293 293 292 291 292 292 292 292 291 291 290 288 286 286 285 285
276 277 279 281 282 284 286 287 289 291 292 293 293 293 294 294 294 295 296 297 298 298 298 297 296 295 295 294 293 292 292 291 291 291 291 291 291 290 290 288 288 287 287
Height
5898 5897 5897 5896 5896 5895 5895 5894 5893 5892 5892 5891 5890 5889 5888 5886 5885 5884 5883 5881 5880 5879 5877 5876 5875 5873 5871 5869 5868 5866 5864 5862 5861 5859 5857 5855 5853 5852 5850 5848 5846 5844 5842
5895 5895 5894 5894 5894 5893 5893 5892 5891 5890 5889 5888 5887 5886 5885 5884 5882 5881 5880 5878 5877 5876 5874 5873 5871 5870 5868 5866 5864 5863 5861 5859 5857 5855 5854 5852 5850 5848 5846 5844 5842 5841 5839
5892 5892 5892 5891 5891 5891 5890 5889 5889 5888 5887 5886 5885 5883 5882 5881 5879 5878 5877 5875 5874 5872 5871 5869 5867 5866 5864 5863 5861 5859 5857 5855 5853 5851 5850 5848 5846 5844 5842 5840 5838 5837 5835
5889 5889 5888 5888 5888 5887 5887 5886 5885 5884 5884 5883 5881 5880 5879 5877 5876 5874 5873 5872 5870 5868 5867 5865 5864 5862 5860 5859 5857 5855 5853 5851 5849 5847 5845 5843 5841 5839 5838 5836 5834 5832 5830
5885 5885 5885 5884 5884 5883 5883 5882 5882 5881 5880 5879 5878 5876 5875 5873 5872 5871 5869 5867 5866 5864 5863 5861 5859 5858 5856 5854 5852 5850 5848 5846 5844 5842 5840 5838 5836 5834 5832 5830 5829 5827 5825
5881 5881 5880 5880 5880 5879 5879 5878 5877 5877 5875 5874 5873 5872 5870 5869 5867 5866 5864 5863 5861 5859 5858 5856 5855 5853 5851 5849 5848 5845 5843 5841 5839 5837 5835 5833 5831 5829 5827 5825 5823 5821 5820
5877 5877 5876 5875 5874 5874 5874 5873 5872 5871 5870 5869 5868 5867 5866 5864 5862 5861 5859 5857 5856 5854 5853 5851 5849 5848 5846 5844 5842 5840 5838 5836 5834 5832 5829 5827 5825 5823 5821 5819 5816 5814 5813
5872 5871 5871 5870 5869 5868 5867 5867 5866 5866 5865 5864 5863 5862 5860 5859 5857 5855 5853 5851 5850 5848 5846 5845 5843 5841 5839 5838 5836 5834 5832 5830 5827 5825 5823 5821 5819 5816 5814 5812 5810 5808 5807
5866 5865 5865 5864 5863 5862 5861 5860 5860 5859 5859 5858 5857 5855 5854 5853 5850 5848 5847 5845 5844 5842 5840 5838 5836 5834 5832 5830 5829 5827 5825 5823 5820 5818 5816 5814 5812 5809 5807 5805 5803 5801 5800
5860 5859 5858 5857 5856 5855 5855 5853 5853 5852 5852 5851 5850 5849 5847 5846 5844 5842 5840 5838 5836 5835 5832 5830 5828 5826 5825 5822 5820 5818 5817 5815 5813 5811 5808 5806 5804 5802 5800 5798 5796 5793 5792
5853 5852 5851 5850 5849 5849 5848 5847 5846 5846 5845 5844 5843 5841 5839 5838 5836 5834 5832 5830 5828 5826 5824 5822 5820 5818 5816 5814 5812 5810 5808 5806 5804 5802 5800 5798 5796 5794 5792 5789 5787 5785 5784
5846 5846 5844 5843 5842 5842 5841 5840 5839 5838 5837 5836 5835 5833 5831 5830 5828 5826 5824 5822 5819 5817 5815 5814 5812 5810 5808 5805 5803 5801 5799 5797 5795 5794 5792 5790 5788 5786 5783 5781 5779 5777 5775
5839 5838 5837 5836 5835 5834 5833 5832 5831 5830 5829 5827 5826 5824 5822 5821 5819 5817 5815 5813 5810 5808 5806 5805 5803 5801 5798 5796 5794 5792 5790 5788 5786 5784 5783 5781 5779 5777 5774 5773 5771 5768 5767
5831 5830 5829 5828 5827 5826 5825 5824 5823 5822 5820 5819 5817 5815 5813 5812 5810 5808 5806 5804 5802 5800 5798 5796 5794 5792 5789 5787 5785 5783 5781 5779 5776 5775 5773 5771 5769 5767 5765 5763 5762 5760 5758
5823 5822 5821 5820 5819 5818 5817 5816 5815 5814 5812 5810 5808 5806 5804 5803 5801 5799 5796 5794 5792 5790 5788 5786 5785 5782 5780 5777 5775 5773 5771 5769 5767 5765 5763 5761 5759 5757 5756 5754 5752 5750 5748
5814 5813 5813 5812 5811 5810 5809 5808 5806 5805 5803 5801 5799 5797 5795 5793 5791 5789 5787 5784 5782 5780 5778 5776 5774 5772 5770 5768 5766 5764 5762 5760 5758 5755 5753 5751 5750 5748 5746 5744 5742 5740 5738
5805 5805 5804 5803 5802 5801 5800 5799 5798 5797 5795 5793 5791 5788 5786 5784 5782 5779 5777 5775 5772 5770 5768 5766 5764 5761 5759 5757 5755 5753 5752 5749 5747 5745 5743 5741 5739 5738 5736 5734 5732 5730 5728
5797 5796 5795 5794 5793 5792 5791 5790 5789 5787 5786 5784 5782 5779 5776 5774 5772 5769 5767 5765 5762 5760 5758 5756 5753 5751 5749 5746 5745 5743 5740 5738 5736 5734 5733 5731 5729 5727 5725 5723 5721 5720 5718
5787 5787 5786 5785 5784 5783 5782 5781 5780 5778 5776 5774 5773 5771 5768 5765 5763 5760 5757 5755 5752 5750 5747 5745 5743 5740 5738 5736 5734 5732 5730 5727 5725 5723 5722 5720 5718 5716 5715 5713 5711 5709 5708
5778 5778 5777 5776 5775 5774 5773 5772 5771 5769 5767 5765 5763 5761 5758 5756 5753 5751 5748 5745 5742 5739 5737 5734 5732 5730 5728 5725 5723 5721 5719 5717 5715 5713 5711 5709 5707 5705 5704 5702 5700 5699 5698
5769 5768 5768 5766 5765 5764 5764 5763 5761 5760 5758 5756 5754 5751 5749 5746 5744 5741 5738 5735 5732 5729 5726 5724 5722 5720 5717 5715 5713 5710 5708 5706 5704 5702 5700 5698 5697 5695 5693 5691 5689 5688 5687
5760 5759 5759 5757 5756 5755 5755 5754 5752 5751 5749 5747 5744 5742 5739 5737 5734 5731 5728 5725 5721 5718 5716 5714 5711 5709 5707 5705 5702 5700 5698 5696 5694 5692 5690 5688 5686 5684 5682 5680 5679 5678 5676
5751 5751 5750 5749 5747 5747 5746 5744 5743 5741 5739 5737 5735 5732 5730 5727 5724 5721 5718 5715 5712 5709 5707 5704 5702 5699 5697 5694 5691 5689 5687 5685 5683 5681 5679 5677 5675 5673 5672 5670 5669 5667 5666
5742 5741 5741 5740 5739 5738 5737 5735 5734 5732 5730 5727 5725 5723 5720 5718 5715 5712 5709 5706 5703 5700 5697 5694 5691 5689 5686 5684 5681 5679 5677 5675 5672 5670 5669 5667 5665 5663 5662 5660 5659 5658 5657
5732 5732 5731 5731 5730 5728 5727 5726 5724 5722 5720 5718 5716 5713 5711 5708 5705 5702 5699 5696 5693 5690 5687 5684 5682 5679 5676 5674 5672 5669 5667 5664 5662 5660 5659 5657 5655 5653 5652 5651 5650 5649 5648
5723 5723 5722 5722 5720 5719 5718 5716 5715 5713 5711 5708 5706 5703 5701 5698 5696 5693 5690 5687 5683 5680 5677 5675 5672 5669 5667 5664 5662 5659 5657 5655 5653 5651 5649 5647 5646 5644 5643 5641 5640 5639 5638